Regional Weather Roundup
Issued by NWS

Home | Current Version | Previous Version | Text Only | Print | Product List | Glossary Off
Versions: 1 2 3 4 5 6 7 8 9 10 11 12 13 14 15 16 17 18 19 20 21 22 23 24 25 26 27 28 29 30 31 32 33 34 35 36 37 38 39 40 41 42 43 44 45 46 47 48 49 50

000
ASUS44 KOUN 070000
RWROK

WEATHER ROUNDUP FOR OKLAHOMA
NATIONAL WEATHER SERVICE NORMAN OK
700 PM CDT FRI MAY 06 2016

NOTE: "FAIR" INDICATES FEW OR NO CLOUDS BELOW 12,000 FEET WITH NO
      SIGNIFICANT WEATHER AND/OR OBSTRUCTIONS TO VISIBILITY.

OKZ001>007-009>012-014-015-017-070100-
NORTHWEST OKLAHOMA AND THE PANHANDLE

CITY           SKY/WX    TMP DP  RH WIND       PRES   REMARKS
GAGE           LGT RAIN  81  50  33 S17G28    29.94F
6HR MIN TEMP:  81; 6HR MAX TEMP:  85; 6HR PCP: TRACE;

GUYMON         SUNNY     82  44  26 S17G29    29.90S
ENID/WOODRING  MOSUNNY   81  52  36 S10       29.94F
$$

OKZ016-021>023-033>039-044-045-070100-
SOUTHWEST OKLAHOMA

CITY           SKY/WX    TMP DP  RH WIND       PRES   REMARKS
LAWTON/REGL    SUNNY     80  50  34 SE10      29.97F
6HR MIN TEMP:  79; 6HR MAX TEMP:  83;

FREDERICK      SUNNY     81  51  35 SE14      29.94S
CLINTON        SUNNY     79  49  34 SE22      29.99S
HOBART         SUNNY     81  50  33 S16       29.97F
$$

OKZ018>020-024>031-070100-
CENTRAL OKLAHOMA

CITY           SKY/WX    TMP DP  RH WIND       PRES   REMARKS
OKLAHOMA CITY  MOSUNNY   78  54  43 S8        29.98F
6HR MIN TEMP:  77; 6HR MAX TEMP:  82;

OKC/WILEY POST SUNNY     78  49  35 S14       29.98F
STILLWATER     SUNNY     80  48  32 S12       29.96F
GUTHRIE        SUNNY     81  46  29 S9        29.97F
$$

OKZ008-013-054>072-070100-
NORTHEAST OKLAHOMA

CITY           SKY/WX    TMP DP  RH WIND       PRES   REMARKS
TULSA          MOSUNNY   79  52  38 SE10      29.96F
6HR MIN TEMP:  77; 6HR MAX TEMP:  82;

TULSA/JONES    SUNNY     80  52  37 S8        29.98F
PONCA CITY     SUNNY     81  48  31 S8        29.95F
BARTLESVILLE   SUNNY     79  50  36 S8        29.98F
MUSKOGEE       SUNNY     76  54  46 SE8       30.01F
$$

OKZ032-040>043-046>053-073>077-070100-
SOUTH CENTRAL/SOUTHEAST OKLAHOMA

CITY           SKY/WX    TMP DP  RH WIND       PRES   REMARKS
MCALESTER      SUNNY     79  52  38 CALM      30.01F
$$




USA.gov is the U.S. government's official web portal to all federal, state and local government web resources and services.